Location: Santa Fe
(35.6870°N, 105.9370°W)
Time: 19:25:04
(UTC-06:00)

Amateur Radio Satellites - All Passes

Search period start: 01 April 2015 18:55
Search period end: 02 April 2015 18:55
Location: Santa Fe, 35.6870°N, 105.9370°W

Satellite Date Start Highest point End Downlink Frequencies (MHz)
Time Altitude Azimuth
STRAND 1 01 Apr 18:55:37 18:58:34 16° 91° (E) 19:01:44 437.568
CUTE-I 01 Apr 18:59:59 19:05:15 58° 259° (W) 19:10:33 437.470
Cubesat XI-IV 01 Apr 19:01:18 19:06:33 55° 259° (W) 19:11:50 437.490
PRISM 01 Apr 19:11:30 19:15:15 32° 97° (E) 19:18:59 437.425
M-CUBED/EXP-1 PRIME 01 Apr 19:20:29 19:24:56 37° 293° (WNW) 19:29:11 437.505
AIST 2 01 Apr 19:33:59 19:38:07 50° 58° (ENE) 19:42:10 435.215
BEESAT 2 01 Apr 19:38:52 19:42:46 42° 245° (WSW) 19:46:37 435.950
CUBESAT XI-V 01 Apr 19:55:10 19:59:42 56° 286° (WNW) 20:04:11 437.345
HO-68 01 Apr 20:08:58 20:15:17 36° 66° (ENE) 20:21:45 435.675
BEESAT 3 01 Apr 20:12:49 20:15:15 15° 250° (WSW) 20:17:29 437.485
RS-15 01 Apr 20:13:45 20:24:15 49° 310° (NW) 20:34:53 29.354- 29.394
SO-50 01 Apr 20:15:24 20:16:21 10° 320° (NW) 20:17:04 436.795
DOVE 4 01 Apr 20:32:20 20:35:45 24° 72° (ENE) 20:39:10 437.250
BRITE-PL 01 Apr 20:32:29 20:37:07 64° 76° (ENE) 20:41:26 437.365/2234.400
STRAND 1 01 Apr 20:33:11 20:38:08 50° 287° (WNW) 20:43:01 437.568
CANX-2 01 Apr 20:41:32 20:45:32 43° 74° (ENE) 20:49:37 2200.000
PRISM 01 Apr 20:47:42 20:50:31 17° 291° (WNW) 20:53:10 437.425
GONETS M04 01 Apr 20:49:21 20:57:20 38° 287° (WNW) 21:05:13
CUTE 1.7 + AOD 2 01 Apr 20:54:44 20:58:53 57° 75° (ENE) 21:03:04 437.475
GOMX 1 01 Apr 21:00:19 21:04:47 83° 78° (ENE) 21:09:02 467.674
AAUSAT CUBESAT 2 01 Apr 21:05:03 21:08:59 42° 74° (ENE) 21:12:58 437.432
DANDE 01 Apr 21:08:21 21:11:22 88° 99° (E) 21:14:01 436.750
CUBEBUG 2 01 Apr 21:09:20 21:11:50 16° 69° (ENE) 21:14:29 437.445
AIST 2 01 Apr 21:14:29 21:16:18 12° 251° (WSW) 21:17:54 435.215
SEEDS 01 Apr 21:18:18 21:22:31 88° 253° (WSW) 21:26:47 437.485
CINEMA 3 01 Apr 21:20:56 21:24:52 43° 74° (ENE) 21:28:50 145.822/145.860
UKube-1 01 Apr 21:32:12 21:34:36 15° 68° (ENE) 21:37:12 .
ISS 01 Apr 21:32:43 21:35:58 89° 145° (SE) 21:39:14 145.825
COMPASS 1 01 Apr 21:35:02 21:39:12 68° 259° (W) 21:43:25 437.405
CUSAT 1 01 Apr 21:39:44 21:41:30 15° 284° (WNW) 21:43:08 437.405
DX 1 01 Apr 21:46:24 21:49:48 23° 70° (ENE) 21:53:19 434.975-435.025
HO-68 01 Apr 21:56:20 22:02:57 39° 262° (W) 22:09:32 435.675
DELFI C3 01 Apr 21:56:28 22:00:28 60° 76° (ENE) 22:04:30 145.870
Oscar 11 01 Apr 21:58:13 22:02:32 85° 79° (ENE) 22:06:53 145.826/435.025
DOVE 4 01 Apr 22:10:04 22:13:32 22° 265° (W) 22:16:48 437.250
FUNcube-1 01 Apr 22:16:35 22:20:40 66° 76° (ENE) 22:24:49 145.935
CANX-2 01 Apr 22:19:42 22:21:46 13° 270° (W) 22:23:37 2200.000
ZACube-1 01 Apr 22:30:56 22:35:04 80° 258° (WSW) 22:39:15 437.345
UWE-3 01 Apr 22:31:01 22:35:07 62° 260° (W) 22:39:14 435.000/436.395/437.385
CUBEBUG 1 01 Apr 22:31:55 22:34:01 14° 68° (ENE) 22:36:20 437.445
RS-15 01 Apr 22:33:59 22:40:28 16° 340° (NNW) 22:46:43 29.354- 29.394
VELOX 1 01 Apr 22:40:57 22:45:05 40° 73° (ENE) 22:49:14 145.980
AAUSAT CUBESAT 2 01 Apr 22:42:51 22:44:53 13° 269° (W) 22:46:42 437.432
CUBEBUG 2 01 Apr 22:44:32 22:48:20 33° 263° (W) 22:52:06 437.445
AISAT 01 Apr 22:47:11 22:51:27 49° 74° (ENE) 22:55:44 437.250
HUMSAT D 01 Apr 22:51:26 22:55:31 85° 78° (ENE) 22:59:40 437.325/437.525
50 SAT 01 Apr 22:53:41 22:57:29 55° 76° (ENE) 23:01:21 437.505
UNISAT 6 01 Apr 22:59:50 23:03:47 28° 96° (E) 23:07:51 437.425
CINEMA 3 01 Apr 23:00:40 23:02:24 12° 269° (W) 23:03:54 145.822/145.860
UKube-1 01 Apr 23:06:20 23:10:27 41° 261° (W) 23:14:34 .
TIGRISAT 01 Apr 23:08:05 23:12:15 33° 97° (E) 23:16:30 435.000
QB50P2 01 Apr 23:09:10 23:11:44 16° 92° (E) 23:14:29 145.880/145.840
ISS 01 Apr 23:11:10 23:12:48 13° 335° (NNW) 23:14:21 145.825
BUGSAT 1 01 Apr 23:16:35 23:18:03 12° 91° (E) 23:19:45 437.445
DX 1 01 Apr 23:22:17 23:25:59 26° 264° (W) 23:29:36 434.975-435.025
ESTCUBE 1 01 Apr 23:29:24 23:33:55 72° 76° (ENE) 23:38:28 437.505/2401.250
POPSAT HIP 1 01 Apr 23:36:03 23:39:52 32° 97° (E) 23:43:43 437.405
TISAT 1 01 Apr 23:37:05 23:39:20 15° 68° (ENE) 23:41:46 437.305
PCSat 01 Apr 23:38:26 23:43:48 60° 61° (ENE) 23:49:09 145.827
ANTELSAT 01 Apr 23:40:05 23:44:44 81° 100° (E) 23:49:27 437.575/2403.000
NANOSAT C BR1 01 Apr 23:44:51 23:48:52 42° 99° (E) 23:52:54 145.865
POLYITAN 1 01 Apr 23:52:32 23:56:42 54° 100° (E) 00:00:54 437.675
SPROUT 02 Apr 00:00:04 00:03:52 32° 72° (ENE) 00:07:44 437.525
CUBEBUG 1 02 Apr 00:05:47 00:10:03 47° 261° (W) 00:14:17 437.445
VELOX 1 02 Apr 00:19:05 00:21:51 16° 268° (W) 00:24:26 145.980
AISAT 02 Apr 00:26:19 00:28:23 13° 269° (W) 00:30:12 437.250
DUCHIFAT 1 02 Apr 00:26:57 00:31:07 58° 285° (WNW) 00:35:16 145.980
QB50P1 02 Apr 00:27:25 00:31:35 56° 285° (WNW) 00:35:44 145.935-145.965
SWISSCUBE 02 Apr 00:35:08 00:36:56 12° 65° (ENE) 00:39:02 437.505
UNISAT 6 02 Apr 00:36:40 00:40:29 25° 289° (WNW) 00:44:15 437.425
BEESAT 02 Apr 00:37:34 00:39:12 12° 65° (ENE) 00:41:07 436.000
QB50P2 02 Apr 00:43:55 00:47:48 35° 287° (WNW) 00:51:40 145.880/145.840
TIGRISAT 02 Apr 00:45:18 00:48:49 21° 290° (WNW) 00:52:15 435.000
YUBILEINY 02 Apr 00:47:37 00:56:18 60° 79° (E) 01:04:55 435.215
BUGSAT 1 02 Apr 00:50:00 00:53:49 41° 286° (WNW) 00:57:37 437.445
RS-15 02 Apr 00:53:41 00:59:29 15° 17° (NNE) 01:05:46 29.354- 29.394
TISAT 1 02 Apr 01:10:52 01:14:51 40° 262° (W) 01:18:48 437.305
POPSAT HIP 1 02 Apr 01:12:37 01:15:33 18° 291° (WNW) 01:18:20 437.405
NANOSAT C BR1 02 Apr 01:22:04 01:24:24 14° 292° (WNW) 01:26:35 145.865
PCSat 02 Apr 01:23:35 01:26:46 15° 254° (WSW) 01:29:42 145.827
ITUPSAT 1 02 Apr 01:23:57 01:28:20 36° 72° (ENE) 01:32:46 437.325
POLYITAN 1 02 Apr 01:30:42 01:32:15 11° 293° (WNW) 01:33:32 437.675
Oscar 19 02 Apr 01:35:38 01:39:19 20° 93° (E) 01:43:11 437.125/150
SPROUT 02 Apr 01:37:05 01:40:04 18° 267° (W) 01:42:54 437.525
SWISSCUBE 02 Apr 02:09:33 02:14:19 64° 259° (WSW) 02:19:07 437.505
BEESAT 02 Apr 02:11:48 02:16:34 66° 259° (W) 02:21:22 436.000
Gurwin Techsat 1B 02 Apr 02:23:34 02:26:14 14° 90° (E) 02:29:12 435.225
O/OREOS (USA 219) 02 Apr 02:39:37 02:42:31 17° 101° (ESE) 02:45:36 437.305
YUBILEINY 02 Apr 02:45:38 02:52:34 26° 276° (W) 02:59:07 435.215
ITAMSAT 1 02 Apr 02:49:17 02:53:54 32° 97° (E) 02:58:32 435.822/435.867
KKS-1 02 Apr 02:52:33 02:56:53 59° 75° (ENE) 03:01:17 437.445
ITUPSAT 1 02 Apr 03:02:46 03:06:22 20° 267° (W) 03:09:49 437.325
SO-50 02 Apr 03:04:36 03:09:20 43° 55° (NE) 03:14:01 436.795
RS-15 02 Apr 03:05:35 03:16:17 43° 47° (NE) 03:27:33 29.354- 29.394
Oscar 19 02 Apr 03:14:00 03:18:53 41° 288° (WNW) 03:23:42 437.125/150
STARS 02 Apr 03:15:02 03:19:21 67° 76° (ENE) 03:23:42 437.465
PHONESAT 2.4 02 Apr 03:17:07 03:18:35 12° 143° (SE) 03:20:09 2401.200-2431.200
HORYU 2 02 Apr 03:26:53 03:28:04 11° 90° (E) 03:29:34 437.375
VERMONT LUNAR 02 Apr 03:38:26 03:41:38 44° 152° (SSE) 03:44:51 437.305
AIST 1 02 Apr 03:43:26 03:47:32 40° 93° (E) 03:51:41
Gurwin Techsat 1B 02 Apr 04:01:27 04:06:41 59° 286° (WNW) 04:11:54 435.225
ISS 02 Apr 04:02:49 04:05:40 28° 34° (NE) 04:08:30 145.825
O/OREOS (USA 219) 02 Apr 04:17:22 04:21:40 38° 295° (WNW) 04:25:58 437.305
ITAMSAT 1 02 Apr 04:29:00 04:33:17 26° 291° (WNW) 04:37:28 435.822/435.867
AO-7 02 Apr 04:32:14 04:39:51 40° 99° (E) 04:47:34 29.400- 29.500
M-CUBED/EXP-1 PRIME 02 Apr 04:32:53 04:35:30 17° 62° (ENE) 04:38:24 437.505
KKS-1 02 Apr 04:33:20 04:34:00 10° 271° (W) 04:34:22 437.445
JAS-2 02 Apr 04:38:38 04:45:38 41° 95° (E) 04:52:03 435.910
SO-50 02 Apr 04:45:59 04:49:37 20° 250° (WSW) 04:53:04 436.795
PHONESAT 2.4 02 Apr 04:53:01 04:56:31 68° 155° (SSE) 05:00:02 2401.200-2431.200
MOZHAYETS 4 02 Apr 04:56:31 05:01:07 72° 76° (ENE) 05:05:46
HORYU 2 02 Apr 05:00:43 05:05:10 57° 285° (WNW) 05:09:34 437.375
GONETS M04 02 Apr 05:07:35 05:12:40 17° 63° (ENE) 05:18:19
VERMONT LUNAR 02 Apr 05:16:06 05:19:20 46° 347° (NNW) 05:22:34 437.305
RS-15 02 Apr 05:17:54 05:29:10 56° 248° (WSW) 05:40:44 29.354- 29.394
AIST 1 02 Apr 05:23:00 05:25:28 14° 289° (WNW) 05:27:44
AUBIESAT-1 02 Apr 05:37:44 05:41:48 82° 75° (ENE) 05:46:16 437.475
ISS 02 Apr 05:39:20 05:41:59 23° 229° (SW) 05:44:35 145.825
PRISM 02 Apr 05:59:52 06:02:38 18° 69° (ENE) 06:05:32 437.425
M-CUBED/EXP-1 PRIME 02 Apr 06:06:15 06:10:03 39° 259° (WSW) 06:14:11 437.505
STRAND 1 02 Apr 06:08:50 06:12:12 19° 67° (ENE) 06:15:46 437.568
JAS-2 02 Apr 06:23:45 06:30:32 35° 293° (WNW) 06:36:38 435.910
AO-7 02 Apr 06:25:01 06:32:40 41° 295° (WNW) 06:40:11 29.400- 29.500
PHONESAT 2.4 02 Apr 06:31:38 06:34:59 41° 351° (N) 06:38:21 2401.200-2431.200
CUSAT 1 02 Apr 06:34:31 06:37:01 14° 74° (ENE) 06:40:10 437.405
VERMONT LUNAR 02 Apr 06:54:17 06:57:22 34° 4° (N) 07:00:29 437.305
CUBESAT XI-V 02 Apr 06:55:14 06:59:57 82° 260° (W) 07:04:41 437.345
GONETS M04 02 Apr 07:02:00 07:10:54 87° 263° (W) 07:19:45
CUTE-I 02 Apr 07:20:01 07:25:20 73° 102° (ESE) 07:30:38 437.470
Cubesat XI-IV 02 Apr 07:21:29 07:26:49 76° 101° (ESE) 07:32:08 437.490
PRISM 02 Apr 07:34:04 07:37:53 33° 262° (W) 07:41:43 437.425
STRAND 1 02 Apr 07:46:08 07:51:05 47° 260° (W) 07:56:03 437.568
DANDE 02 Apr 07:47:55 07:52:28 53° 81° (E) 07:58:36 436.750
PHONESAT 2.4 02 Apr 08:10:22 08:13:43 40° 8° (N) 08:17:04 2401.200-2431.200
CUSAT 1 02 Apr 08:14:54 08:19:50 65° 263° (W) 08:26:24 437.405
BEESAT 3 02 Apr 08:25:51 08:28:05 15° 110° (ESE) 08:30:31 437.485
VERMONT LUNAR 02 Apr 08:31:58 08:35:19 79° 23° (NNE) 08:38:39 437.305
BRITE-PL 02 Apr 08:40:07 08:43:33 23° 95° (E) 08:47:14 437.365/2234.400
CUTE 1.7 + AOD 2 02 Apr 08:44:54 08:46:39 13° 90° (E) 08:48:40 437.475
GONETS M04 02 Apr 09:02:06 09:06:40 14° 280° (W) 09:10:33
CUTE-I 02 Apr 09:02:25 09:04:52 13° 296° (WNW) 09:07:01 437.470
Cubesat XI-IV 02 Apr 09:04:06 09:06:21 12° 296° (WNW) 09:08:18 437.490
GOMX 1 02 Apr 09:04:42 09:08:31 29° 97° (E) 09:12:36 467.674
SEEDS 02 Apr 09:06:38 09:09:40 19° 93° (E) 09:12:49 437.485
CINEMA 3 02 Apr 09:19:31 09:21:51 14° 92° (E) 09:24:28 145.822/145.860
COMPASS 1 02 Apr 09:22:11 09:25:34 23° 94° (E) 09:29:01 437.405
HO-68 02 Apr 09:26:33 09:33:28 49° 100° (E) 09:40:23 435.675
BEESAT 2 02 Apr 09:29:49 09:33:54 72° 118° (ESE) 09:38:03 435.950
AIST 2 02 Apr 09:30:00 09:33:13 22° 112° (ESE) 09:36:36 435.215
DANDE 02 Apr 09:32:46 09:35:50 15° 265° (W) 09:39:01 436.750
DELFI C3 02 Apr 09:42:11 09:42:36 10° 89° (E) 09:43:18 145.870
PHONESAT 2.4 02 Apr 09:48:41 09:52:12 72° 205° (SSW) 09:55:44 2401.200-2431.200
Oscar 11 02 Apr 09:49:28 09:52:32 19° 93° (E) 09:55:44 145.826/435.025
UNISAT 6 02 Apr 09:57:22 10:00:02 17° 69° (ENE) 10:02:53 437.425
BEESAT 3 02 Apr 10:01:58 10:05:50 40° 304° (NW) 10:09:45 437.485
TIGRISAT 02 Apr 10:05:08 10:08:10 20° 69° (ENE) 10:11:21 435.000
CANX-2 02 Apr 10:05:23 10:09:39 60° 284° (WNW) 10:13:53 2200.000
FUNcube-1 02 Apr 10:08:49 10:11:36 17° 92° (E) 10:14:35 145.935
DOVE 4 02 Apr 10:10:09 10:14:36 77° 284° (WNW) 10:19:20 437.250
VERMONT LUNAR 02 Apr 10:10:14 10:12:45 19° 214° (SW) 10:15:11 437.305
BRITE-PL 02 Apr 10:18:29 10:22:05 26° 287° (WNW) 10:25:46 437.365/2234.400
CUTE 1.7 + AOD 2 02 Apr 10:18:45 10:22:53 46° 286° (WNW) 10:27:00 437.475
ZACube-1 02 Apr 10:22:44 10:26:22 25° 95° (E) 10:30:07 437.345
UWE-3 02 Apr 10:23:41 10:27:41 32° 97° (E) 10:31:49 435.000/436.395/437.385
AAUSAT CUBESAT 2 02 Apr 10:26:21 10:30:33 65° 284° (WNW) 10:34:43 437.432
POPSAT HIP 1 02 Apr 10:27:07 10:29:53 18° 70° (ENE) 10:32:48 437.405
NANOSAT C BR1 02 Apr 10:35:22 10:38:35 22° 70° (ENE) 10:41:53 145.865
ANTELSAT 02 Apr 10:36:34 10:40:39 47° 74° (ENE) 10:44:51 437.575/2403.000
CUBEBUG 2 02 Apr 10:37:35 10:42:03 57° 100° (E) 10:46:37 437.445
HUMSAT D 02 Apr 10:39:30 10:42:20 18° 93° (E) 10:45:19 437.325/437.525
SEEDS 02 Apr 10:41:46 10:45:33 30° 288° (WNW) 10:49:15 437.485
GOMX 1 02 Apr 10:43:07 10:46:34 22° 288° (WNW) 10:50:04 467.674
AISAT 02 Apr 10:43:13 10:44:36 12° 90° (E) 10:46:16 437.250
POLYITAN 1 02 Apr 10:43:16 10:46:49 28° 72° (ENE) 10:50:27 437.675
CINEMA 3 02 Apr 10:54:57 10:59:18 47° 285° (WNW) 11:03:50 145.822/145.860
UKube-1 02 Apr 10:56:47 11:00:49 38° 98° (E) 11:04:51 .
COMPASS 1 02 Apr 10:57:44 11:01:13 24° 289° (WNW) 11:04:36 437.405
AIST 2 02 Apr 11:07:54 11:11:41 30° 307° (NW) 11:15:29 435.215
BEESAT 2 02 Apr 11:11:09 11:12:36 11° 316° (NW) 11:13:51 435.950
DX 1 02 Apr 11:12:43 11:17:03 65° 102° (ESE) 11:21:21 434.975-435.025
DELFI C3 02 Apr 11:14:10 11:18:10 50° 285° (WNW) 11:22:06 145.870
HO-68 02 Apr 11:14:51 11:20:56 29° 295° (WNW) 11:26:49 435.675
DUCHIFAT 1 02 Apr 11:16:20 11:20:30 68° 76° (ENE) 11:24:41 145.980
QB50P1 02 Apr 11:17:06 11:21:17 72° 76° (ENE) 11:25:29 145.935-145.965
Oscar 11 02 Apr 11:24:55 11:28:48 31° 288° (WNW) 11:32:37 145.826/435.025
ESTCUBE 1 02 Apr 11:26:11 11:29:17 19° 93° (E) 11:32:31 437.505/2401.250
PHONESAT 2.4 02 Apr 11:28:23 11:30:10 13° 217° (SW) 11:31:52 2401.200-2431.200
UNISAT 6 02 Apr 11:32:38 11:36:35 35° 263° (W) 11:40:33 437.425
QB50P2 02 Apr 11:33:31 11:37:43 70° 258° (WSW) 11:41:56 145.880/145.840
BUGSAT 1 02 Apr 11:36:46 11:40:56 87° 77° (ENE) 11:45:03 437.445
TIGRISAT 02 Apr 11:41:01 11:44:47 29° 264° (W) 11:48:31 435.000
FUNcube-1 02 Apr 11:43:58 11:48:06 38° 287° (WNW) 11:52:16 145.935
YUBILEINY 02 Apr 11:55:18 11:57:21 11° 79° (ENE) 12:00:16 435.215
CUBEBUG 1 02 Apr 11:57:42 12:01:42 37° 98° (E) 12:05:44 437.445
ZACube-1 02 Apr 11:58:57 12:02:41 26° 288° (WNW) 12:06:23 437.345
UWE-3 02 Apr 12:00:40 12:04:04 21° 290° (WNW) 12:07:25 435.000/436.395/437.385
POPSAT HIP 1 02 Apr 12:01:48 12:05:35 32° 263° (W) 12:09:21 437.405
50 SAT 02 Apr 12:08:56 12:12:55 57° 285° (WNW) 12:16:53 437.505
VELOX 1 02 Apr 12:10:34 12:14:57 65° 284° (WNW) 12:19:18 145.980
NANOSAT C BR1 02 Apr 12:10:48 12:14:20 25° 265° (W) 12:17:49 145.865
HUMSAT D 02 Apr 12:14:20 12:18:12 33° 287° (WNW) 12:22:03 437.325/437.525
ANTELSAT 02 Apr 12:16:04 12:17:50 12° 270° (W) 12:19:21 437.575/2403.000
CUBEBUG 2 02 Apr 12:16:22 12:18:22 12° 292° (WNW) 12:20:08 437.445
AISAT 02 Apr 12:17:17 12:21:35 52° 286° (WNW) 12:25:52 437.250
POLYITAN 1 02 Apr 12:19:37 12:22:47 20° 266° (W) 12:25:51 437.675
JUGNU 02 Apr 12:21:53 12:24:34 13° 170° (S) 12:27:21 437.505
UKube-1 02 Apr 12:33:57 12:36:41 16° 292° (WNW) 12:39:16 .
PCSat 02 Apr 12:38:28 12:39:29 11° 104° (ESE) 12:40:54 145.827
Oscar 19 02 Apr 12:49:54 12:53:43 22° 68° (ENE) 12:57:42 437.125/150
O/OREOS (USA 219) 02 Apr 12:51:33 12:54:57 21° 60° (ENE) 12:58:28 437.305
DX 1 02 Apr 12:52:30 12:52:49 10° 295° (WNW) 12:52:51 434.975-435.025
TISAT 1 02 Apr 12:58:20 13:02:13 37° 98° (E) 13:06:08 437.305
ESTCUBE 1 02 Apr 13:02:12 13:06:17 34° 288° (WNW) 13:10:18 437.505/2401.250
SPROUT 02 Apr 13:25:03 13:29:22 82° 283° (WNW) 13:33:39 437.525
ITUPSAT 1 02 Apr 13:29:46 13:31:15 12° 89° (E) 13:33:02 437.325
SRMSAT 02 Apr 13:30:30 13:32:20 11° 167° (SSE) 13:34:16 437.500
CUBEBUG 1 02 Apr 13:35:02 13:37:49 16° 291° (WNW) 13:40:26 437.445
Gurwin Techsat 1B 02 Apr 13:41:46 13:45:14 19° 67° (ENE) 13:48:54 435.225
YUBILEINY 02 Apr 13:44:11 13:52:56 76° 94° (E) 14:01:47 435.215
ITAMSAT 1 02 Apr 14:04:23 14:09:08 38° 71° (ENE) 14:13:57 435.822/435.867
JUGNU 02 Apr 14:09:08 14:12:52 17° 179° (S) 14:16:37 437.505
SWISSCUBE 02 Apr 14:13:04 14:17:34 40° 98° (E) 14:22:04 437.505
BEESAT 02 Apr 14:15:14 14:19:42 39° 98° (E) 14:24:10 436.000
PCSat 02 Apr 14:16:54 14:22:18 81° 296° (WNW) 14:27:46 145.827
Oscar 19 02 Apr 14:28:08 14:32:53 37° 263° (W) 14:37:37 437.125/150
O/OREOS (USA 219) 02 Apr 14:30:26 14:34:28 31° 256° (WSW) 14:38:23 437.305
TISAT 1 02 Apr 14:35:10 14:37:46 16° 291° (WNW) 14:40:11 437.305
KKS-1 02 Apr 14:48:09 14:50:29 14° 91° (E) 14:53:03 437.445
JAS-2 02 Apr 14:49:21 14:52:59 15° 59° (ENE) 14:57:10 435.910
ITUPSAT 1 02 Apr 15:04:54 15:09:38 61° 286° (WNW) 15:14:19 437.325
STARS 02 Apr 15:09:06 15:11:39 16° 92° (E) 15:14:24 437.465
SRMSAT 02 Apr 15:17:07 15:20:47 17° 177° (S) 15:24:28 437.500
Gurwin Techsat 1B 02 Apr 15:19:43 15:24:52 50° 261° (W) 15:30:01 435.225
AO-7 02 Apr 15:28:04 15:35:41 43° 65° (ENE) 15:43:24 29.400- 29.500
AIST 1 02 Apr 15:30:54 15:35:11 74° 265° (W) 15:39:26
YUBILEINY 02 Apr 15:44:28 15:50:51 20° 294° (WNW) 15:56:48 435.215
ITAMSAT 1 02 Apr 15:44:40 15:48:46 22° 266° (W) 15:52:45 435.822/435.867
SWISSCUBE 02 Apr 15:51:49 15:55:10 18° 292° (WNW) 15:58:19 437.505
BEESAT 02 Apr 15:53:53 15:57:18 19° 292° (WNW) 16:00:32 436.000
HORYU 2 02 Apr 15:55:55 16:00:20 89° 257° (WSW) 16:04:49 437.375
JUGNU 02 Apr 15:58:11 16:01:10 14° 189° (S) 16:04:05 437.505
PCSat 02 Apr 16:04:41 16:06:42 12° 317° (NW) 16:08:28 145.827
KKS-1 02 Apr 16:23:10 16:27:24 43° 287° (WNW) 16:31:36 437.445
JAS-2 02 Apr 16:29:54 16:36:52 82° 76° (ENE) 16:44:37 435.910
STARS 02 Apr 16:44:12 16:48:21 39° 287° (WNW) 16:52:26 437.465
MOZHAYETS 4 02 Apr 16:55:30 16:58:59 21° 93° (E) 17:02:34
CUTE-I 02 Apr 17:04:29 17:04:52 10° 62° (ENE) 17:05:38 437.470
Cubesat XI-IV 02 Apr 17:05:23 17:06:28 11° 63° (ENE) 17:07:53 437.490
SRMSAT 02 Apr 17:05:51 17:09:14 15° 187° (S) 17:12:35 437.500
SO-50 02 Apr 17:16:57 17:20:42 26° 112° (ESE) 17:24:38 436.795
AO-7 02 Apr 17:20:54 17:28:32 38° 262° (W) 17:36:04 29.400- 29.500
RS-15 02 Apr 17:27:23 17:36:14 32° 107° (ESE) 17:45:31 29.354- 29.394
M-CUBED/EXP-1 PRIME 02 Apr 17:51:10 17:54:53 23° 97° (E) 17:58:36 437.505
BEESAT 2 02 Apr 17:52:49 17:55:47 19° 50° (NE) 17:58:49 435.950
GONETS M04 02 Apr 18:05:44 18:11:31 21° 83° (E) 18:17:46
JAS-2 02 Apr 18:18:38 18:23:01 16° 275° (W) 18:27:06 435.910
BEESAT 3 02 Apr 18:23:30 18:27:28 46° 57° (ENE) 18:31:22 437.485
MOZHAYETS 4 02 Apr 18:32:09 18:36:17 32° 288° (WNW) 18:40:20
CUTE-I 02 Apr 18:38:55 18:44:17 89° 77° (ENE) 18:49:41 437.470
Cubesat XI-IV 02 Apr 18:40:33 18:45:55 87° 256° (WSW) 18:51:20 437.490
